Weather reports worldwide

Advertisment
Aachen-Orsbach, Germany (10505): temperature & dewpoint: 10.08.2018 18:00:00 - 16.08.2018 18:00:00 (CEST)Aachen-Orsbach, Germany (10505): temperature 5cm & temperature -5cm: 10.08.2018 18:00:00 - 16.08.2018 18:00:00 (CEST)Aachen-Orsbach, Germany (10505): temperature -20cm & temperature -100cm: 10.08.2018 18:00:00 - 16.08.2018 18:00:00 (CEST)Aachen-Orsbach, Germany (10505): wind speed & gusts: 10.08.2018 18:00:00 - 16.08.2018 18:00:00 (CEST)Aachen-Orsbach, Germany (10505): wind direction: 10.08.2018 18:00:00 - 16.08.2018 18:00:00 (CEST)Aachen-Orsbach, Germany (10505): reduced air pressure: 10.08.2018 18:00:00 - 16.08.2018 18:00:00 (CEST)Aachen-Orsbach, Germany (10505): visibility: 10.08.2018 18:00:00 - 16.08.2018 18:00:00 (CEST)Aachen-Orsbach, Germany (10505): sunshine duration: 10.08.2018 18:00:00 - 16.08.2018 18:00:00 (CEST)Aachen-Orsbach, Germany (10505): precipitation: 10.08.2018 18:00:00 - 16.08.2018 18:00:00 (CEST)
Date & Time tt [°C] td [°C] tt 5cm [°C] tt -5cm [°C] tt -20cm [°C] tt -100cm [°C] ff [km/h] ff [kn] fx [km/h] fx [kn] dd ppp [hPa] vv [km] sd [min] rr [mm]
16.08.2018 18:00:00 26,4 14,6 29,3 29,9 21,9 19,3 10 5 22 12 NW 1013,3 41 60 0,0
16.08.2018 17:00:00 26,9 14,3 30,7 30,8 21,3 19,3 16 9 26 14 W 1013,7 43 60 0,0
16.08.2018 16:00:00 26,0 13,7 30,3 30,8 20,7 19,4 13 7 20 11 WSW 1014,0 73 60 0,0
16.08.2018 15:00:00 24,5 14,5 29,2 30,1 20,1 19,4 12 7 23 12 WSW 1014,7 39 60 0,0
16.08.2018 14:00:00 23,9 14,7 28,0 28,9 19,6 19,4 14 8 25 14 WSW 1015,4 47 60 0,0
16.08.2018 13:00:00 22,2 14,8 26,8 26,6 19,2 19,4 11 6 25 14 W 1015,9 40 59 0,0
16.08.2018 12:00:00 20,9 14,2 25,1 24,0 18,9 19,4 13 7 22 12 SW 1016,5 35 45 0,0
16.08.2018 11:00:00 19,5 13,9 21,5 21,7 18,8 19,4 11 6 22 12 WSW 1017,0 35 18 0,0
16.08.2018 10:00:00 18,6 14,7 20,1 19,6 18,8 19,4 10 5 16 9 SW 1017,3 28 34 0,0
16.08.2018 09:00:00 17,3 13,9 18,5 17,3 18,9 19,4 13 7 16 9 SSW 1017,3 40 60 0,0
16.08.2018 08:00:00 16,0 13,6 16,0 15,5 19,1 19,4 12 6 16 9 SSW 1017,8 42 56 0,0
16.08.2018 07:00:00 15,0 13,4 13,2 14,8 19,3 19,4 11 6 16 9 SSW 1017,9 30 0 0,0
16.08.2018 06:00:00 14,7 13,5 12,5 14,9 19,5 19,4 11 6 14 8 SSW 1017,8 27 0 0,0
16.08.2018 05:00:00 13,9 13,3 10,8 15,3 19,8 19,5 9 5 13 7 S 1018,4 27 0 0,0
16.08.2018 04:00:00 14,5 13,6 12,5 15,8 20,0 19,5 11 6 13 7 S 1018,7 24 0 0,0
16.08.2018 03:00:00 14,9 13,7 12,8 16,4 20,2 19,5 10 5 13 7 SSW 1019,0 29 0 0,0
16.08.2018 02:00:00 15,3 13,5 13,5 17,0 20,5 19,5 10 5 13 7 SSW 1019,1 35 0 0,0
16.08.2018 01:00:00 15,9 13,8 14,5 17,7 20,7 19,5 10 6 16 9 SW 1019,3 38 0 0,0
16.08.2018 00:00:00 17,0 13,9 15,6 18,3 20,9 19,5 12 7 15 8 SSW 1019,3 48 0 0,0
15.08.2018 23:00:00 16,8 14,3 15,0 19,2 21,0 19,5 11 6 12 6 SSW 1019,3 49 0 0,0
15.08.2018 22:00:00 17,4 14,6 15,7 20,5 21,0 19,5 6 3 11 6 WSW 1019,3 50 0 0,0
15.08.2018 21:00:00 18,7 15,0 18,1 22,1 20,9 19,5 10 6 24 13 W 1019,1 63 42 0,0
15.08.2018 20:00:00 20,8 15,1 21,7 23,6 20,7 19,5 16 9 26 14 WNW 1018,9 63 21 0,0
15.08.2018 19:00:00 22,1 14,5 23,6 24,7 20,5 19,5 16 8 26 14 W 1018,8 53 46 0,0
15.08.2018 18:00:00 21,9 14,6 23,6 24,5 20,1 19,5 16 8 22 12 W 1019,1 61 0 0,0
15.08.2018 17:00:00 21,7 15,1 22,9 25,4 19,8 19,5 14 8 27 15 WSW 1019,3 47 5 0,0
15.08.2018 16:00:00 21,9 15,7 25,2 25,4 19,3 19,5 20 11 26 14 W 1019,4 59 9 0,0
15.08.2018 15:00:00 22,2 15,7 26,8 25,1 19,0 19,6 16 8 28 15 SW 1019,6 34 35 0,0
15.08.2018 14:00:00 20,0 15,4 22,5 23,6 18,7 19,6 23 12 33 18 SSW 1020,1 54 47 0,0
15.08.2018 13:00:00 19,2 15,5 21,6 20,5 18,6 19,6 23 13 31 17 SW 1020,2 49 9 0,0
15.08.2018 12:00:00 18,1 15,6 20,1 18,9 18,5 19,6 23 12 33 18 SW 1020,3 35 1 0,0
15.08.2018 11:00:00 17,3 15,6 18,7 17,9 18,5 19,6 21 11 31 17 SW 1020,4 22 0 0,0
15.08.2018 10:00:00 16,5 15,0 17,3 16,9 18,5 19,6 23 13 31 17 SW 1020,0 25 0 0,0
15.08.2018 09:00:00 16,0 14,8 16,4 16,0 18,6 19,6 23 13 32 17 SW 1019,6 28 0 0,0
15.08.2018 08:00:00 14,8 13,8 14,9 15,3 18,8 19,6 24 13 31 17 SW 1019,4 26 8 0,0
15.08.2018 07:00:00 14,2 13,2 13,5 14,8 18,9 19,6 18 10 25 13 SW 1019,0 23 0 0,0
15.08.2018 06:00:00 14,3 13,1 13,3 15,0 19,1 19,6 16 8 18 10 SW 1018,9 20 0 0,0
15.08.2018 05:00:00 14,2 13,1 13,0 15,5 19,2 19,6 13 7 16 9 SW 1018,9 22 0 0,0
15.08.2018 04:00:00 15,9 13,2 14,9 16,2 19,4 19,6 10 6 18 10 WSW 1019,1 33 0 0,0
15.08.2018 03:00:00 16,2 13,2 15,8 16,2 19,5 19,6 11 6 16 9 WSW 1019,2 31 0 0,0
15.08.2018 02:00:00 15,3 13,6 14,5 16,1 19,7 19,6 10 5 14 7 SW 1019,3 22 0 0,0
15.08.2018 01:00:00 15,6 13,7 14,5 16,6 19,8 19,7 10 5 12 7 SW 1019,3 23 0 0,0
15.08.2018 00:00:00 15,8 14,1 14,2 17,1 19,9 19,7 8 4 14 7 SW 1019,1 24 0 0,0
14.08.2018 23:00:00 16,8 13,7 15,4 17,8 20,0 19,7 11 6 17 9 W 1018,7 36 0 0,0
14.08.2018 22:00:00 17,9 16,0 17,4 18,4 20,1 19,7 10 5 14 8 W 1018,4 16 0 0,0
14.08.2018 21:00:00 17,9 16,3 17,1 19,0 20,1 19,7 8 4 15 8 W 1017,6 17 0 0,0
14.08.2018 20:00:00 18,9 16,1 18,6 19,6 20,0 19,7 11 6 23 12 W 1017,1 22 0 0,0
14.08.2018 19:00:00 19,4 15,8 19,5 20,0 20,0 19,7 16 9 22 12 W 1017,1 23 0 0,0
14.08.2018 18:00:00 19,4 16,0 20,0 20,1 19,9 19,7 15 8 28 15 WNW 1016,8 29 0 0,0
14.08.2018 17:00:00 18,8 16,5 19,8 20,0 19,9 19,7 13 7 32 17 WSW 1016,6 20 0 0,0
14.08.2018 16:00:00 19,0 16,4 19,2 19,8 19,8 19,7 23 12 37 20 W 1016,3 36 0 0,4
14.08.2018 15:00:00 17,7 16,4 17,4 20,1 19,7 19,7 28 15 40 22 WNW 1015,9 7 0 0,0
14.08.2018 14:00:00 19,5 15,6 19,8 20,3 19,6 19,7 14 8 29 16 W 1015,3 23 1 0,0
14.08.2018 13:00:00 18,9 15,9 19,6 20,5 19,5 19,7 18 10 32 18 WSW 1015,0 19 4 0,0
14.08.2018 12:00:00 19,2 16,2 20,7 19,3 19,5 19,7 20 11 34 18 WSW 1014,6 20 6 0,0
14.08.2018 11:00:00 17,4 16,2 17,5 18,1 19,6 19,7 22 12 29 16 W 1014,5 10 0 0,0
14.08.2018 10:00:00 16,5 15,9 17,0 17,4 19,6 19,7 17 9 27 14 WSW 1014,1 7 0 0,0
14.08.2018 09:00:00 15,6 15,6 15,6 16,9 19,7 19,7 18 10 29 16 WSW 1013,6 2,1 0 0,1
14.08.2018 08:00:00 15,4 15,2 15,2 16,8 19,9 19,8 17 9 31 17 WSW 1012,9 6 0 0,0
14.08.2018 07:00:00 15,5 14,9 15,5 16,8 20,0 19,8 16 9 29 15 WSW 1012,4 10 0 0,0
14.08.2018 06:00:00 15,6 14,5 15,6 16,9 20,1 19,8 16 8 25 13 WSW 1011,8 20 0 0,0
14.08.2018 05:00:00 15,8 14,5 15,7 17,0 20,2 19,8 19 10 34 18 WSW 1011,6 26 0 0,0
14.08.2018 04:00:00 16,0 14,4 15,9 17,1 20,4 19,8 18 10 31 17 WSW 1011,3 28 0 0,0
14.08.2018 03:00:00 16,4 14,6 16,3 17,3 20,5 19,8 18 10 31 17 WSW 1011,1 32 0 0,0
14.08.2018 02:00:00 16,7 15,0 16,5 17,4 20,7 19,8 18 10 32 18 WSW 1010,9 30 0 0,0
14.08.2018 01:00:00 16,7 15,3 16,2 17,4 20,9 19,8 21 11 29 16 WSW 1010,1 34 0 0,0
14.08.2018 00:00:00 16,6 15,1 16,2 17,4 21,1 19,8 12 6 21 11 SW 1009,8 40 0 0,0
13.08.2018 23:00:00 16,3 14,8 15,6 17,6 21,3 19,8 16 8 24 13 WSW 1009,4 42 0 0,0
13.08.2018 22:00:00 16,3 15,1 15,4 18,3 21,5 19,8 14 7 26 14 SW 1009,2 51 0 0,0
13.08.2018 21:00:00 17,4 15,0 16,8 19,5 21,6 19,8 19 10 31 17 WSW 1008,6 75 26 0,0
13.08.2018 20:00:00 18,5 15,1 18,6 20,3 21,6 19,8 16 9 25 14 WSW 1008,0 65 22 0,0
13.08.2018 19:00:00 18,9 14,1 18,6 21,5 21,6 19,8 17 9 35 19 WSW 1007,5 75 36 0,0
13.08.2018 18:00:00 18,4 16,0 18,7 21,7 21,5 19,8 19 10 30 16 W 1007,7 35 12 0,2
13.08.2018 17:00:00 18,4 14,2 19,7 22,4 21,4 19,8 24 13 42 23 W 1007,4 58 23 0,0
13.08.2018 16:00:00 19,4 16,0 21,0 22,5 21,3 19,8 19 10 54 29 WSW 1007,1 67 23 0,0
13.08.2018 15:00:00 19,6 16,2 21,4 22,8 21,3 19,9 32 17 46 25 SW 1006,8 53 36 0,0
13.08.2018 14:00:00 18,1 16,5 18,3 21,4 21,2 19,9 26 14 38 21 SSW 1006,8 55 0 2,7
13.08.2018 13:00:00 16,3 16,2 16,4 24,0 21,0 19,9 31 17 47 25 SW 1007,4 1,8 21 5,2
13.08.2018 12:00:00 20,4 16,1 23,1 22,1 21,0 19,9 29 16 42 23 SSW 1006,7 65 28 0,0
13.08.2018 11:00:00 19,3 15,9 21,2 20,2 21,1 19,9 19 11 38 21 SW 1007,1 66 18 0,0
13.08.2018 10:00:00 18,3 14,8 18,1 18,8 21,2 19,9 19 10 36 19 SW 1007,4 75 0 0,0
13.08.2018 09:00:00 18,0 14,4 17,5 18,6 21,3 19,9 22 12 30 16 SSW 1007,0 75 0 0,0
13.08.2018 08:00:00 16,5 14,6 15,7 18,4 21,5 19,9 16 9 27 14 ESE 1006,1 75 0 1,6
13.08.2018 07:00:00 16,6 14,7 15,4 18,7 21,7 19,9 16 9 34 19 S 1007,5 45 0 1,1
13.08.2018 06:00:00 16,7 12,9 14,7 19,2 21,8 19,9 20 11 26 14 SW 1008,0 34 0 0,4
13.08.2018 05:00:00 20,5 10,5 18,4 19,8 22,0 19,9 22 12 36 19 SW 1007,1 57 0 0,0
13.08.2018 04:00:00 22,5 9,0 21,4 19,7 22,1 19,9 22 12 31 17 S 1006,1 69 0 0,0
13.08.2018 03:00:00 21,4 8,7 19,8 19,6 22,4 20,0 20 11 28 15 SSE 1007,0 75 0 0,0
13.08.2018 02:00:00 21,1 8,5 19,0 19,8 22,6 20,0 19 10 24 13 SSE 1007,9 75 0 0,0
13.08.2018 01:00:00 20,0 8,6 18,6 19,7 22,8 20,0 16 8 21 12 SSE 1008,8 75 0 0,0
13.08.2018 00:00:00 19,4 8,5 16,3 20,0 23,1 20,0 14 8 16 9 SSE 1009,4 72 0 0,0
12.08.2018 23:00:00 18,9 8,3 14,2 21,0 23,3 20,0 10 5 12 6 SE 1010,1 64 0 0,0
12.08.2018 22:00:00 20,7 7,8 15,7 22,2 23,4 20,0 9 5 12 7 S 1010,5 72 0 0,0
12.08.2018 21:00:00 22,7 7,6 17,6 23,9 23,4 20,0 6 3 16 9 SSE 1010,3 75 8 0,0
12.08.2018 20:00:00 24,3 7,3 23,4 25,9 23,3 20,0 12 6 23 12 SSW 1010,3 74 27 0,0
12.08.2018 19:00:00 25,6 8,2 26,3 27,5 23,0 20,0 15 8 23 13 S 1010,6 75 41 0,0
12.08.2018 18:00:00 26,2 7,9 28,9 28,6 22,6 20,0 16 9 24 13 SSW 1011,4 64 33 0,0
12.08.2018 17:00:00 25,9 8,3 27,4 30,0 22,1 20,0 15 8 29 16 S 1011,8 75 39 0,0
12.08.2018 16:00:00 26,0 8,3 30,2 30,9 21,6 20,0 12 6 30 16 S 1012,8 75 60 0,0
12.08.2018 15:00:00 25,9 7,5 30,5 30,9 21,0 20,0 18 10 31 17 SW 1013,6 75 60 0,0
12.08.2018 14:00:00 25,4 9,6 30,2 29,5 20,5 20,1 15 8 27 14 SSW 1014,3 72 60 0,0
12.08.2018 13:00:00 23,6 8,5 28,6 27,6 20,1 20,1 13 7 24 13 SSW 1015,3 62 60 0,0
12.08.2018 12:00:00 23,0 8,9 26,8 25,5 19,8 20,1 16 9 27 15 SW 1016,0 70 60 0,0
12.08.2018 11:00:00 22,1 8,5 25,1 22,7 19,7 20,1 15 8 28 15 SSW 1016,6 69 60 0,0
12.08.2018 10:00:00 20,0 8,6 21,8 19,9 19,7 20,1 20 11 29 16 SSW 1017,1 62 60 0,0
12.08.2018 09:00:00 18,7 7,1 19,6 17,5 19,8 20,1 21 11 29 16 S 1017,4 74 60 0,0
12.08.2018 08:00:00 17,4 7,5 17,2 15,2 20,0 20,1 17 9 25 13 S 1017,8 73 49 0,0
12.08.2018 07:00:00 14,7 7,3 12,4 14,5 20,3 20,1 11 6 18 10 S 1018,3 74 8 0,0
12.08.2018 06:00:00 14,1 7,1 11,1 14,6 20,6 20,1 12 6 17 9 S 1018,6 68 0 0,0
12.08.2018 05:00:00 12,1 7,4 8,6 14,8 20,8 20,1 11 6 13 7 SSE 1019,5 69 0 0,0
12.08.2018 04:00:00 12,1 7,3 8,8 15,3 21,1 20,1 10 5 13 7 S 1020,1 69 0 0,0
12.08.2018 03:00:00 12,3 7,6 9,6 15,8 21,4 20,2 10 5 11 6 SSE 1020,6 62 0 0,0
12.08.2018 02:00:00 13,9 8,1 9,4 16,2 21,7 20,2 6 3 8 4 ESE 1021,0 67 0 0,0
12.08.2018 01:00:00 13,8 7,5 9,7 16,9 22,0 20,2 4 2 5 3 SSE 1021,5 73 0 0,0
12.08.2018 00:00:00 14,2 7,3 9,7 17,7 22,3 20,2 4 2 4 2 SSE 1021,8 75 0 0,0
11.08.2018 23:00:00 14,2 7,2 10,4 18,8 22,5 20,2 4 2 5 3 S 1022,2 63 0 0,0
11.08.2018 22:00:00 16,6 7,5 11,4 20,2 22,6 20,2 3 1 6 3 NW 1022,1 69 0 0,0
11.08.2018 21:00:00 18,1 7,9 15,7 22,0 22,7 20,2 5 3 12 7 WNW 1021,8 75 49 0,0
11.08.2018 20:00:00 19,8 7,5 20,4 23,7 22,5 20,2 10 6 21 11 NW 1021,8 56 44 0,0
11.08.2018 19:00:00 20,3 7,2 21,5 25,5 22,3 20,2 14 8 27 15 WNW 1021,8 75 57 0,0
11.08.2018 18:00:00 20,4 6,5 22,5 26,8 22,0 20,2 13 7 32 17 WSW 1022,0 65 54 0,0
11.08.2018 17:00:00 20,8 6,3 25,2 27,8 21,6 20,2 20 11 34 19 W 1022,2 75 60 0,0
11.08.2018 16:00:00 20,6 6,2 24,4 27,2 21,3 20,2 20 11 36 19 W 1022,5 68 43 0,0
11.08.2018 15:00:00 19,1 7,0 23,6 27,7 20,9 20,2 21 11 37 20 W 1023,1 62 46 0,0
11.08.2018 14:00:00 19,8 7,6 24,6 26,5 20,5 20,3 22 12 31 17 W 1023,3 63 42 0,0
11.08.2018 13:00:00 18,4 7,6 23,5 26,1 20,2 20,3 21 12 34 18 WNW 1023,4 70 52 0,0
11.08.2018 12:00:00 17,9 7,7 22,2 23,6 20,0 20,3 20 11 34 18 WSW 1023,5 74 48 0,0
11.08.2018 11:00:00 16,0 8,1 17,4 21,5 20,0 20,3 18 10 29 15 W 1023,8 61 44 0,0
11.08.2018 10:00:00 15,4 10,5 17,6 19,2 20,1 20,3 15 8 26 14 W 1023,6 67 50 0,0
11.08.2018 09:00:00 14,4 11,5 15,6 17,1 20,2 20,3 17 9 28 15 W 1023,4 48 21 0,0
11.08.2018 08:00:00 13,4 11,6 13,5 15,9 20,4 20,3 18 10 29 16 W 1022,8 42 21 0,0
11.08.2018 07:00:00 13,2 11,3 12,6 15,8 20,6 20,3 19 10 34 18 WSW 1022,1 40 4 0,0
11.08.2018 06:00:00 13,8 11,4 13,7 16,2 20,8 20,3 18 10 27 14 WSW 1021,7 46 0 0,0
11.08.2018 05:00:00 12,5 11,0 12,0 16,3 21,0 20,3 9 5 18 10 WSW 1021,5 75 0 0,0
11.08.2018 04:00:00 12,9 11,3 12,3 17,0 21,2 20,3 14 8 37 20 W 1021,3 75 0 0,1
11.08.2018 03:00:00 14,6 11,5 13,1 17,4 21,4 20,3 26 14 40 21 W 1021,0 44 0 0,1
11.08.2018 02:00:00 16,3 8,2 15,6 17,3 21,7 20,3 24 13 36 19 SW 1020,4 73 0 0,0
11.08.2018 01:00:00 16,1 7,8 14,9 17,5 21,9 20,3 19 10 31 17 SSW 1020,7 75 0 0,0
11.08.2018 00:00:00 16,7 7,9 15,4 18,0 22,1 20,3 21 12 30 16 SSW 1020,5 75 0 0,0
10.08.2018 23:00:00 17,2 7,8 15,8 18,9 22,3 20,3 17 9 31 17 SSW 1020,7 68 0 0,0
10.08.2018 22:00:00 18,2 7,2 16,9 20,1 22,4 20,3 22 12 37 20 SSW 1020,8 75 0 0,0
10.08.2018 21:00:00 19,1 6,7 18,4 21,7 22,4 20,4 20 11 34 19 SW 1020,5 75 47 0,0
10.08.2018 20:00:00 20,3 7,1 20,9 23,1 22,2 20,4 22 12 43 23 SW 1020,6 74 59 0,0
10.08.2018 19:00:00 20,8 6,9 22,3 24,6 22,0 20,4 28 15 42 23 SW 1020,7 75 52 0,0
10.08.2018 18:00:00 21,3 6,6 24,0 25,8 21,7 20,4 28 15 44 24 SW 1021,0 70 53 0,0

tt = temperature
td = dewpoint
tt 5cm = temperature 5cm
tt -5cm = temperature -5cm
tt -20cm = temperature -20cm
tt -100cm = temperature -100cm
ff = wind speed
fx = gusts
dd = wind direction
ppp = reduced air pressure
vv = visibility
sd = sunshine duration
rr = precipitation

Next stations